Flag Weather past 2 weeks in Hamilton, Bermuda

Now
70 °F

Partly sunny.


Feels Like: 70 °F
Forecast: 65 / 71 °F
Wind: 10 mph from East

Location: Bermuda

Current Time: Nov 23, 2014 at 4:05:38 PM

Latest Report: Nov 23, 2014 at 2:55 PM


Visibility: N/A

Pressure: 30.33 "Hg

Humidity: 57%

Dew point: 54 °F

Location of HamiltonLocation

Historic Weather in Hamilton — Graph

°F

Hamilton temperature yesterday

Maximum temperature yesterday: 66 °F (at 12:55 AM)
Minimum temperature yesterday: 63 °F (at 5:55 AM)
Average temperature yesterday: 65 °F

Past Weeks' High & Low Weather Summary

 TemperatureHumidityPressure
High79 °F (Nov 10, 11:55 AM)100% (Nov 9, 1:55 AM)30.42 "Hg (Nov 9, 1:55 AM)
Low61 °F (Nov 20, 1:55 AM)49% (Nov 22, 12:55 PM)29.80 "Hg (Nov 12, 8:55 PM)
Average72 °F82%30.08 "Hg
* Reported Nov 8 2:55 PM — Nov 23 2:55 PM, Hamilton, Weather by CustomWeather, © 2014

Note: Actual official high and low records may vary slightly from our data, if they occured in-between our weather recording intervals... More about our weather records

Advertising

Hamilton weather history for previous 24 hours

 ConditionsComfort  
Time TempWeatherWind HumidityBarometerVisibility
2:55 PM
Nov 23
70 °FPartly sunny.10 mph57%30.33 "HgN/A
1:55 PM70 °FScattered clouds.6 mph69%30.36 "HgN/A
12:55 PM68 °FScattered clouds.9 mph69%30.39 "HgN/A
11:55 AM68 °FPartly sunny.9 mph69%30.42 "HgN/A
10:55 AM68 °FPartly sunny.9 mph60%30.42 "HgN/A
9:55 AM68 °FScattered showers. Partly sunny.No wind64%30.42 "HgN/A
8:55 AM66 °FScattered showers. Partly sunny.6 mph73%30.42 "HgN/A
7:55 AM64 °FBroken clouds.2 mph64%30.39 "HgN/A
6:55 AM63 °FScattered showers. Broken clouds.20 mph77%30.39 "HgN/A
5:55 AM64 °FPassing clouds.5 mph60%30.36 "HgN/A
4:55 AM64 °FPartly cloudy.7 mph78%30.36 "HgN/A
3:55 AM64 °FPassing clouds.5 mph64%30.36 "HgN/A
2:55 AM64 °FPassing clouds.5 mph60%30.24 "HgN/A
1:55 AM64 °FPartly cloudy.7 mph68%30.36 "HgN/A
12:55 AM66 °FMostly cloudy.5 mph56%30.36 "HgN/A
11:55 PM
Nov 22
66 °FMostly cloudy.6 mph56%30.36 "HgN/A
10:55 PM66 °FOvercast.6 mph52%30.36 "HgN/A
9:55 PM64 °FOvercast.7 mph60%30.39 "HgN/A
8:55 PM64 °FMostly cloudy.8 mph64%30.36 "HgN/A
7:55 PM64 °FOvercast.7 mph56%30.36 "HgN/A
6:55 PM64 °FOvercast.10 mph56%30.36 "HgN/A
5:55 PM64 °FOvercast.12 mph52%30.36 "HgN/A
4:55 PM64 °FBroken clouds.14 mph56%30.36 "HgN/A
Weather by CustomWeather, © 2014

See weather overviewHow to use our weather pages